Content
SEND FEEDBACK

Daily
Averages
Monthly
Summary
United States of America

ANN ARBOR, MICHIGAN


Home > North America > United States > Michigan
Elevation: 759 feet     Latitude: 42 17N     Longitude: 083 43W

WEATHER
 
SELECT A DAY
Number of Records: 209,112;   Date Range: 1/1/95 - 12/24/14
 
SHARE

PRINT THIS DATA

[ ← Previous Day ]
WEATHER ALMANAC - MARCH 31, 2013
[ Next Day → ]
[ °C ]   °F
Weather ElementAverageHighLow
Temperature45.5 °F59 °F (3:53 pm)30.9 °F (1:53 am)
Dewpoint34.6 °F43 °F (12:53 pm)27 °F (1:53 am)
Humidity69 %89 % (9:53 am)32 % (5:53 pm)
Barometer29.72 in29.90 in (1:53 am)29.63 in (5:53 pm)
Wind Speed9.2 mph19.6 mph (5:53 pm)
Wind Gust27.6 mph (11:53 pm)
Weather ElementAverage
Visibility7.4 mi
Wind DirectionSSW (204.2 °)

Weather ElementTotal
Precipitation0.09 in
Heating Degree Days20.1 (Base 65)
Averaged from 33 records on March 31, 2013
WEATHER CONDITIONS BREAKOUT
WIND DIRECTION BREAKOUT
WEATHER BY HOUR - MARCH 31, 2013
[ °C ]   °F
Local TimeTemperatureDewpointHumidityBarometerVisibilityWind DirectionWind SpeedGust SpeedPrecipitationEventsConditions
1:53 AM30.9 °F27.0 °F85 %29.90 in8.0 miCalmClear
2:53 AM30.9 °F27.0 °F85 %29.86 in7.0 miCalmClear
3:53 AM32.0 °F28.0 °F85 %29.83 in7.0 miCalmMostly Cloudy
4:53 AM32.0 °F28.9 °F88 %29.81 in8.0 miCalmMostly Cloudy
5:53 AM36.0 °F30.0 °F79 %29.77 in8.0 miCalmOvercast
6:53 AM37.9 °F30.9 °F76 %29.76 in9.0 miSW (220°)3.5 mphOvercast
7:53 AM39.9 °F30.9 °F70 %29.76 in8.0 miSSW (200°)5.8 mphOvercast
8:53 AM39.9 °F33.1 °F77 %29.75 in5.0 miCalm0.00 inRainLight Rain
9:41 AM39.2 °F35.6 °F87 %29.73 in2.5 miSW (220°)3.5 mph0.02 inRainLight Rain
9:53 AM39.9 °F37.0 °F89 %29.73 in2.0 miSW (220°)3.5 mph0.04 inRainLight Rain
10:16 AM41.0 °F37.4 °F87 %29.71 in3.0 miSW (230°)4.6 mph0.01 inRainLight Rain
10:34 AM42.8 °F39.2 °F87 %29.71 in3.0 miSW (230°)6.9 mph0.01 inOvercast
10:53 AM44.1 °F39.9 °F85 %29.72 in3.0 miWSW (240°)5.8 mph0.01 inOvercast
11:03 AM44.6 °F41.0 °F87 %29.70 in3.0 miWSW (240°)8.1 mphOvercast
11:28 AM44.6 °F41.0 °F87 %29.71 in3.0 miSW (230°)6.9 mphOvercast
11:53 AM46.0 °F42.1 °F86 %29.72 in4.0 miWSW (240°)8.1 mphOvercast
12:25 PM48.2 °F42.8 °F82 %29.70 in6.0 miWest (270°)12.7 mphHaze
12:39 PM48.2 °F42.8 °F82 %29.70 in7.0 miWest (260°)13.8 mphOvercast
12:53 PM51.1 °F43.0 °F74 %29.70 in8.0 miNorthMostly Cloudy
1:00 PM51.8 °F42.8 °F71 %29.69 in9.0 miWest (270°)17.3 mph24.2 mphOvercast
1:35 PM53.6 °F39.2 °F58 %29.68 in10.0 miWest (270°)12.7 mphMostly Cloudy
1:53 PM55.0 °F37.9 °F53 %29.68 in10.0 miWSW (250°)16.1 mph25.3 mphMostly Cloudy
2:53 PM57.9 °F34.0 °F41 %29.67 in10.0 miWest (260°)17.3 mph21.9 mphPartly Cloudy
3:53 PM59.0 °F30.9 °F35 %29.65 in10.0 miWest (260°)15.0 mph24.2 mphPartly Cloudy
4:53 PM57.9 °F30.0 °F35 %29.64 in10.0 miWNW (290°)16.1 mph24.2 mphPartly Cloudy
5:53 PM57.9 °F28.0 °F32 %29.63 in10.0 miWest (280°)19.6 mph26.5 mphPartly Cloudy
6:53 PM55.9 °F28.9 °F36 %29.64 in10.0 miWest (270°)18.4 mphOvercast
7:53 PM52.0 °F30.0 °F43 %29.65 in10.0 miWest (280°)17.3 mph20.7 mphMostly Cloudy
8:53 PM48.9 °F30.0 °F48 %29.65 in10.0 miWest (270°)9.2 mphPartly Cloudy
9:53 PM48.0 °F35.1 °F61 %29.67 in10.0 miWNW (300°)6.9 mphOvercast
10:49 PM46.4 °F33.8 °F62 %29.68 in10.0 miNW (320°)11.5 mph24.2 mphOvercast
10:53 PM46.0 °F33.1 °F61 %29.69 in10.0 miNNW (330°)13.8 mphOvercast
11:53 PM43.0 °F30.9 °F62 %29.71 in10.0 miWNW (290°)18.4 mph27.6 mphMostly Cloudy
Hourly data recorded from KARB, located miles away from Ann Arbor, Michigan







STORIES FROM OUR PARTNERS